RH
58 61 62 63 61 60 57 56 54 52 50 49 48 48 48 47 45 44 44 42 35 22 11 5 4 4 4 4 6 11 18 27 38 48 57 65 73 80 85 88 87 85
57 61 62 62 60 59 58 57 56 55 53 52 50 49 48 48 47 46 46 48 47 41 28 15 7 4 4 4 4 3 5 8 14 22 32 42 52 60 67 74 80 84
58 61 61 60 60 61 62 62 60 57 54 52 51 50 50 50 50 48 48 49 49 47 41 29 17 10 5 4 4 4 3 3 4 6 11 18 27 37 45 54 61 67
58 61 62 63 65 65 65 63 60 58 56 55 53 51 50 51 53 52 50 51 51 49 45 39 30 20 13 7 4 5 4 4 4 3 4 5 9 15 23 32 41 48
61 64 66 67 67 66 65 64 63 62 61 62 63 61 56 53 54 56 55 53 52 51 48 44 39 29 21 15 9 6 5 5 5 4 4 4 3 5 7 12 20 28
65 67 68 69 67 67 69 70 70 69 68 70 72 73 70 63 56 56 58 56 54 53 49 47 44 34 27 24 18 11 8 6 6 5 4 4 4 3 4 4 7 11
70 70 69 69 68 70 74 76 76 77 78 79 80 80 80 77 67 58 59 59 55 54 51 49 49 39 29 27 25 20 16 10 8 7 6 6 6 4 4 4 4 4
76 75 74 72 69 72 79 83 84 88 89 88 87 87 88 89 79 64 61 61 58 55 51 49 51 44 31 29 29 26 24 20 16 13 10 8 8 7 6 6 5 4
82 81 79 78 76 77 82 86 89 94 97 96 94 95 97 100 90 71 64 64 60 57 53 50 53 48 36 32 36 36 36 37 34 30 27 22 18 15 12 10 8 7
81 86 85 84 84 83 83 87 92 97 100 100 99 99 101 104 95 76 69 69 65 60 58 55 56 56 44 35 40 45 45 47 49 48 47 45 42 39 35 31 27 23
65 79 86 88 89 88 86 87 92 98 100 100 100 99 100 104 99 85 77 77 74 69 67 65 64 65 56 42 40 46 45 45 50 53 56 57 57 57 55 51 46 42
48 57 66 76 84 89 92 93 94 99 101 101 101 100 99 101 102 98 93 90 87 80 76 76 75 76 72 56 43 44 46 44 47 51 54 58 60 61 62 61 59 56
44 42 44 50 59 68 79 88 95 100 102 102 101 100 101 101 100 100 100 99 99 96 90 89 88 87 85 70 50 42 44 44 47 51 55 59 64 68 73 77 79 79
44 43 42 41 42 45 52 61 72 83 93 100 102 99 99 102 102 103 103 101 100 100 99 101 101 95 88 77 57 42 40 43 47 53 59 65 72 78 84 89 92 92
42 43 44 45 46 46 45 46 48 54 65 77 89 96 97 97 98 100 103 105 105 104 102 103 104 99 90 78 59 42 39 44 50 58 65 73 80 86 89 90 90 91
42 43 43 45 46 48 49 50 49 48 48 51 60 72 83 91 94 92 91 92 96 101 103 102 98 91 82 68 52 43 44 48 55 64 72 79 85 87 88 88 88 90
51 53 54 54 53 53 53 53 54 54 52 49 48 50 56 66 78 84 86 85 83 81 83 84 81 74 65 55 48 47 52 56 63 71 76 80 83 85 87 90 93 95
55 59 63 66 68 68 67 66 66 65 61 56 53 49 46 47 51 59 69 77 83 83 78 73 68 64 59 57 56 57 60 65 71 78 81 83 84 86 89 92 95 98
50 54 59 66 71 75 77 78 79 80 80 77 70 62 55 50 46 45 47 52 60 71 80 83 81 77 71 66 65 66 69 73 77 80 82 84 85 86 89 92 95 97
43 46 51 59 67 73 78 82 85 87 89 92 91 87 81 74 63 51 46 47 47 47 53 63 74 83 87 85 80 75 72 73 76 78 79 80 81 83 86 89 93 95
36 40 43 51 61 69 75 82 88 91 92 95 99 103 102 98 88 70 53 48 52 54 51 48 49 56 68 79 87 89 87 82 78 75 74 73 73 75 78 84 89 92
32 36 40 47 57 63 68 73 79 82 84 88 95 103 107 101 93 81 63 51 52 58 60 59 55 49 47 50 58 69 80 88 90 87 82 77 72 71 73 79 85 88
33 36 40 48 58 62 63 64 67 70 71 71 74 84 95 96 84 69 57 51 55 60 62 63 66 67 62 55 48 46 49 58 70 81 85 85 82 77 75 77 80 82
34 37 39 45 56 66 69 66 66 67 67 65 62 61 67 76 79 72 60 52 51 57 65 68 70 73 74 73 67 59 51 44 44 51 63 72 79 80 78 76 75 75
32 35 37 39 45 56 65 69 69 69 68 66 62 57 52 52 59 70 79 79 66 56 58 66 73 76 77 77 77 75 71 59 44 38 42 51 62 73 77 77 77 79
31 32 34 36 38 40 45 52 58 63 67 68 66 63 60 54 48 49 63 79 82 75 69 67 70 77 81 83 83 85 85 74 51 37 36 39 46 61 75 83 85 88
Wind_Speed
33 33 33 34 35 36 37 38 39 40 40 42 42 43 43 44 43 41 40 40 42 46 53 61 71 81 90 97 104 110 115 119 122 123 123 122 120 119 117 117 116 116
30 31 32 33 34 35 36 36 37 38 38 39 40 41 41 42 43 42 40 39 39 39 42 46 52 60 70 79 87 95 102 108 114 118 121 123 123 121 120 119 118 118
31 31 32 33 33 34 34 35 36 37 38 39 39 39 39 39 40 41 40 38 38 37 37 37 40 44 51 59 67 75 83 92 100 107 113 116 119 120 121 121 120 119
31 31 32 32 32 32 33 34 35 36 37 37 38 38 38 37 37 38 38 37 36 35 35 33 33 34 37 42 48 55 63 71 80 89 97 103 108 112 116 119 120 120
31 31 31 30 30 30 31 33 34 34 34 34 34 34 34 35 35 35 35 35 34 33 32 31 29 29 29 32 36 41 47 53 59 67 75 83 91 98 104 110 113 116
29 29 29 29 28 29 30 32 33 33 32 31 30 30 30 30 31 32 32 32 32 31 30 28 26 25 25 25 27 30 34 39 44 49 55 61 69 77 85 92 98 103
26 26 27 27 27 28 30 31 32 32 30 29 28 28 28 27 27 28 28 29 29 28 26 24 22 21 21 20 21 23 25 28 32 36 40 44 49 55 62 70 77 84
26 26 26 26 26 28 29 30 31 31 30 27 26 26 25 24 23 23 24 26 26 25 23 21 19 18 17 16 15 15 16 18 20 23 27 31 35 40 45 51 58 65
27 27 27 26 26 27 28 29 30 31 30 28 25 24 21 19 18 19 20 22 23 23 21 19 16 15 15 13 11 9 9 9 11 13 16 20 24 27 32 36 41 47
28 28 28 27 26 26 27 28 29 30 30 29 26 23 19 16 13 14 16 18 21 21 19 18 15 14 13 12 10 9 8 8 9 11 13 15 17 19 22 25 28 32
28 28 28 27 26 26 26 28 29 30 29 29 27 24 20 16 12 10 12 15 18 19 18 17 15 13 12 12 11 11 10 9 10 12 13 14 16 17 19 21 23 25
27 27 27 27 26 26 26 27 28 29 29 28 27 25 22 18 13 10 10 12 14 16 16 16 14 12 11 11 12 13 12 11 11 13 14 16 17 18 19 21 22 24
27 26 27 27 27 26 26 26 26 27 28 28 27 25 23 20 16 13 10 9 10 12 13 13 12 11 11 12 14 15 14 13 13 13 15 16 17 18 19 20 22 23
27 27 27 27 27 27 27 27 26 26 27 27 26 25 23 21 19 16 13 10 8 8 9 10 10 11 12 13 15 15 15 13 13 14 15 16 17 18 19 20 21 22
28 28 28 28 28 28 28 28 27 27 26 26 26 25 23 21 19 17 15 12 9 7 6 7 8 9 11 13 14 14 14 13 13 14 15 16 16 18 19 21 22 23
28 27 27 27 27 27 28 28 27 27 26 26 25 24 23 21 20 18 15 13 11 9 7 7 7 9 10 12 12 13 13 13 14 15 16 17 17 19 20 21 22 23
27 27 26 26 26 26 26 26 26 26 26 25 25 24 23 21 20 18 16 14 13 11 9 8 8 8 10 11 12 12 13 14 14 15 16 17 18 18 19 20 21 22
27 27 27 26 26 25 25 25 25 25 25 25 24 24 23 22 21 19 17 15 14 13 12 11 10 10 11 11 12 13 14 14 15 15 16 17 17 18 18 19 20 21
26 27 27 27 27 27 27 26 26 25 25 25 24 23 23 23 22 21 19 17 15 14 13 13 13 13 13 14 14 15 15 15 16 16 17 17 18 18 19 19 20 21
25 26 26 26 26 26 27 27 27 27 27 26 26 25 24 23 22 21 20 19 18 16 14 14 14 14 15 16 17 17 18 18 18 19 19 19 19 20 20 20 21 21
24 25 25 24 24 24 24 25 25 26 27 27 26 26 24 23 21 21 20 19 18 17 17 15 14 14 15 16 17 18 19 20 21 21 21 22 22 22 22 22 22 23
23 23 23 22 21 21 21 22 23 24 25 26 26 26 25 23 20 19 19 19 17 17 16 16 15 14 14 15 16 17 19 20 21 22 23 23 23 24 24 24 24 24
22 22 21 20 19 19 19 19 20 22 23 24 25 26 26 24 21 18 17 17 17 16 16 16 16 15 15 14 14 16 17 19 20 21 22 24 24 25 25 26 26 26
20 20 19 18 17 17 17 18 19 20 21 22 23 25 26 26 24 21 18 17 17 17 16 16 16 15 15 14 14 15 16 18 20 21 21 22 23 24 25 26 27 27
20 19 18 17 16 16 16 16 17 18 19 21 21 23 24 25 25 24 22 20 19 19 18 18 17 16 15 15 15 15 16 17 18 19 20 20 20 22 23 24 24 25
20 19 18 17 16 16 16 16 17 17 19 20 20 21 22 23 25 25 24 22 21 20 19 18 18 18 17 17 16 16 16 17 17 16 17 17 18 19 20 20 21 22
Wind_Direction
300 299 298 298 297 295 293 292 289 287 284 281 278 276 274 272 271 270 268 267 267 266 262 257 254 251 250 249 248 247 246 246 245 245 245 245 244 244 244 244 245 245
304 303 303 302 301 300 298 296 294 291 288 285 281 277 273 271 270 270 269 268 268 270 269 266 260 256 252 250 249 248 247 246 245 245 244 244 244 244 244 245 245 245
308 307 306 306 306 305 303 301 299 296 293 289 284 280 275 271 269 268 268 268 268 269 271 272 269 264 258 254 251 249 248 247 246 245 244 244 244 244 244 244 245 245
312 311 311 311 311 309 308 307 305 302 298 293 288 283 278 273 268 266 265 266 267 269 271 273 274 271 266 259 255 252 250 248 247 246 245 244 243 243 242 243 243 244
316 316 316 315 315 315 315 315 314 310 305 300 294 288 282 275 269 265 263 263 265 268 270 272 274 274 271 265 259 254 251 249 248 247 246 244 243 242 242 242 242 242
321 320 320 320 321 323 325 325 325 321 315 309 302 295 288 280 271 265 262 260 262 266 269 272 274 275 274 270 265 259 253 249 247 247 245 244 243 242 241 241 241 241
329 327 327 327 328 331 333 335 335 333 327 319 312 304 296 286 275 265 259 258 259 263 267 271 273 274 274 272 269 264 257 252 248 245 244 242 241 240 240 240 240 240
340 338 336 335 335 338 340 342 343 343 339 331 323 315 305 292 279 266 258 256 257 260 265 269 271 272 272 270 269 265 259 253 247 243 240 237 236 235 235 236 236 237
348 345 342 342 342 344 346 348 350 350 350 346 338 330 321 304 286 269 258 254 255 258 262 265 266 268 267 265 263 260 251 240 233 228 226 226 226 227 229 230 232 233
354 351 347 346 347 349 351 354 356 356 357 357 353 347 340 326 301 276 261 255 255 257 260 263 262 263 261 256 251 248 240 229 223 219 216 215 216 218 221 224 226 227
360 356 352 350 349 351 355 358 0 1 2 3 3 1 357 348 328 297 273 262 259 258 260 263 264 261 257 250 243 243 242 235 228 225 222 221 220 219 221 222 224 225
2 2 359 357 355 356 359 2 3 3 4 6 7 7 6 2 351 328 300 281 271 265 264 265 266 263 255 245 238 238 240 238 231 227 225 226 226 226 227 228 229 231
3 4 4 3 2 2 3 5 6 6 5 6 7 9 9 8 5 355 335 310 290 277 270 268 267 260 250 240 235 234 237 239 236 231 227 226 226 226 226 228 230 232
9 9 9 8 7 7 7 8 8 8 7 6 6 7 9 10 8 6 359 346 325 300 281 270 264 255 245 239 237 237 239 241 240 234 229 226 225 224 223 225 227 229
12 11 11 11 11 10 10 10 10 10 9 7 6 5 6 7 7 5 3 358 349 332 306 281 266 256 248 244 242 241 241 242 239 235 231 228 226 225 225 226 228 230
8 9 8 8 9 9 9 10 11 11 10 10 8 5 3 3 2 0 358 355 350 341 324 300 279 264 255 251 248 246 244 242 239 235 232 230 229 229 231 232 233 235
8 9 8 8 7 7 7 7 9 10 10 11 11 9 6 3 359 355 352 349 344 337 325 308 290 275 263 256 253 251 249 247 244 241 238 236 235 236 236 237 238 239
8 9 9 9 9 8 8 7 6 6 7 8 9 9 9 8 4 359 353 346 339 331 322 311 298 285 274 266 261 257 255 252 250 247 245 243 243 242 242 243 245 246
6 6 7 8 8 9 10 9 8 7 6 5 5 4 5 6 6 4 0 354 346 334 322 312 302 293 285 278 273 268 264 260 257 254 251 249 248 248 248 249 250 252
2 2 4 5 6 8 9 9 9 9 7 6 4 2 0 359 359 360 1 1 357 348 336 321 306 296 288 282 278 274 271 267 264 262 258 256 254 252 252 252 254 255
355 356 358 0 3 6 9 10 10 9 9 8 7 4 0 356 352 351 353 358 358 354 349 340 324 308 294 285 280 276 273 270 268 266 263 261 259 257 256 255 256 257
347 349 351 354 358 2 6 9 11 11 11 11 10 8 4 360 354 347 346 350 353 351 350 349 343 332 316 300 289 281 275 271 269 267 264 263 261 260 259 258 258 258
341 343 345 349 352 356 1 5 8 10 11 12 12 10 8 5 1 352 344 345 347 346 346 347 346 343 336 324 309 295 284 275 269 266 264 263 262 260 260 259 259 259
337 339 341 343 346 350 354 358 3 6 8 10 11 10 8 7 5 359 351 345 343 342 341 343 343 340 337 332 324 314 301 287 275 267 263 262 262 261 260 259 259 258
334 335 336 337 339 343 347 350 354 358 1 3 6 7 6 5 4 3 358 350 343 338 337 338 340 338 334 329 326 323 318 307 290 272 262 259 260 262 261 260 258 256
330 330 330 330 332 335 338 341 344 348 351 353 356 359 360 360 0 1 0 356 349 344 338 334 334 337 336 332 328 327 327 325 310 283 264 257 258 260 260 259 257 253